TimeEDT,TemperatureF,Dew PointF,Humidity,Sea Level PressureIn,VisibilityMPH,Wind Direction,Wind SpeedMPH,Gust SpeedMPH,PrecipitationIn,Events,Conditions,WindDirDegrees,DateUTC
12:53 AM,71.1,69.1,93,29.97,5.0,North,5.8,-,N/A,,Overcast,360,2013-10-16 04:53:00
1:53 AM,70.0,69.1,97,29.96,5.0,North,5.8,-,N/A,,Overcast,360,2013-10-16 05:53:00
2:21 AM,70.0,69.1,97,29.97,7.0,North,3.5,-,N/A,,Overcast,10,2013-10-16 06:21:00
2:49 AM,69.8,69.8,100,29.97,6.0,NW,4.6,-,N/A,,Overcast,320,2013-10-16 06:49:00
2:53 AM,70.0,69.1,97,29.96,5.0,NW,5.8,-,N/A,,Overcast,320,2013-10-16 06:53:00
3:00 AM,70.0,69.1,97,29.96,5.0,NNW,3.5,-,N/A,,Overcast,330,2013-10-16 07:00:00
3:53 AM,71.1,69.1,93,29.95,6.0,North,5.8,-,N/A,,Overcast,360,2013-10-16 07:53:00
4:14 AM,71.1,69.1,93,29.96,2.0,NNE,3.5,-,N/A,,Overcast,20,2013-10-16 08:14:00
4:28 AM,71.1,69.1,93,29.96,2.5,Calm,Calm,-,N/A,,Overcast,0,2013-10-16 08:28:00
4:44 AM,71.1,69.1,93,29.96,4.0,North,5.8,-,N/A,,Overcast,10,2013-10-16 08:44:00
4:50 AM,71.6,69.8,94,29.96,2.0,North,4.6,-,N/A,,Overcast,10,2013-10-16 08:50:00
4:53 AM,71.1,70.0,96,29.96,1.5,North,4.6,-,N/A,,Overcast,350,2013-10-16 08:53:00
5:01 AM,71.1,69.1,93,29.96,2.0,North,5.8,-,N/A,,Overcast,350,2013-10-16 09:01:00
5:03 AM,71.1,69.1,93,29.96,3.0,North,5.8,-,N/A,,Overcast,360,2013-10-16 09:03:00
5:33 AM,71.1,69.1,93,29.96,8.0,NNE,3.5,-,N/A,,Overcast,20,2013-10-16 09:33:00
5:50 AM,71.6,69.8,94,29.96,8.0,North,4.6,-,N/A,,Overcast,10,2013-10-16 09:50:00
5:53 AM,71.1,69.1,93,29.96,8.0,North,4.6,-,N/A,,Overcast,360,2013-10-16 09:53:00
6:16 AM,71.1,69.1,93,29.97,9.0,NNE,3.5,-,N/A,,Overcast,20,2013-10-16 10:16:00
6:53 AM,71.1,69.1,93,29.98,9.0,NNE,4.6,-,N/A,,Overcast,20,2013-10-16 10:53:00
7:34 AM,71.1,69.1,93,29.99,8.0,North,4.6,-,N/A,,Overcast,10,2013-10-16 11:34:00
7:53 AM,71.1,69.1,93,29.98,7.0,North,4.6,-,N/A,,Overcast,10,2013-10-16 11:53:00
8:53 AM,72.0,69.1,91,29.99,7.0,NW,3.5,-,N/A,,Mostly Cloudy,320,2013-10-16 12:53:00
9:53 AM,73.9,68.0,82,30.00,10.0,NNW,4.6,-,N/A,,Scattered Clouds,340,2013-10-16 13:53:00
10:53 AM,78.1,69.1,74,30.00,10.0,North,5.8,-,N/A,,Clear,350,2013-10-16 14:53:00
11:53 AM,81.0,68.0,65,29.99,10.0,North,4.6,-,N/A,,Clear,360,2013-10-16 15:53:00
12:53 PM,82.0,64.0,54,29.98,10.0,Variable,3.5,-,N/A,,Clear,0,2013-10-16 16:53:00
1:53 PM,84.9,64.9,51,29.96,10.0,North,5.8,-,N/A,,Clear,350,2013-10-16 17:53:00
2:53 PM,86.0,64.0,48,29.94,10.0,North,5.8,-,N/A,,Clear,350,2013-10-16 18:53:00
3:53 PM,86.0,63.0,46,29.92,10.0,NNE,3.5,-,N/A,,Clear,30,2013-10-16 19:53:00
4:53 PM,84.9,61.0,44,29.92,10.0,Variable,4.6,-,N/A,,Clear,0,2013-10-16 20:53:00
5:53 PM,84.9,60.1,43,29.92,10.0,Calm,Calm,-,N/A,,Clear,0,2013-10-16 21:53:00
6:53 PM,81.0,63.0,54,29.93,10.0,NNE,4.6,-,N/A,,Clear,20,2013-10-16 22:53:00
7:53 PM,78.1,64.9,64,29.94,10.0,NE,3.5,-,N/A,,Partly Cloudy,50,2013-10-16 23:53:00
8:53 PM,77.0,66.0,69,29.96,10.0,NE,3.5,-,N/A,,Clear,40,2013-10-17 00:53:00
9:53 PM,75.0,66.0,73,29.97,10.0,Calm,Calm,-,N/A,,Clear,0,2013-10-17 01:53:00
10:53 PM,73.9,68.0,82,29.99,10.0,NE,4.6,-,N/A,,Clear,50,2013-10-17 02:53:00
11:53 PM,73.9,69.1,85,29.99,10.0,SE,3.5,-,N/A,,Clear,140,2013-10-17 03:53:00